Home   Weather   Alice Springs   Past weeks

Flag for Australia Past Weather in Alice Springs, Northern Territory, Australia — Yesterday and Last 2 Weeks

Now
70 °F

Clear.


Feels Like: 70 °F
Forecast: 46 / 68 °F
Wind: 10 mph from West

Location: Alice Springs Aerodrome

Current Time: Sep 28, 2016 at 11:17:34 PM

Latest Report: Sep 28, 2016 at 10:30 PM


Visibility: N/A

Pressure: 29.83 "Hg (27.88 "Hg at 581m altitude)

Humidity: 38%

Dew Point: 43 °F

Location of Alice SpringsLocation

Past Weather in Alice Springs — Graph

°F

Alice Springs Temperature Yesterday

Maximum temperature yesterday: 75 °F (at 2:30 PM)
Minimum temperature yesterday: 59 °F (at 12:00 AM)
Average temperature yesterday: 68 °F

High & Low Weather Summary for the Past Weeks

 TemperatureHumidityPressure
High82 °F (Sep 16, 5:00 PM)100% (Sep 14, 12:00 AM)30.18 "Hg (Sep 14, 12:00 AM)
Low43 °F (Sep 22, 6:00 AM)16% (Sep 22, 3:00 PM)29.74 "Hg (Sep 24, 2:30 AM)
Average63 °F60%29.98 "Hg
* Reported Sep 13 9:30 PM — Sep 28 10:00 PM, Alice Springs, Weather by CustomWeather, © 2016

Note: Actual official high and low records may vary slightly from our data, if they occured in-between our weather recording intervals... More about our weather records

Advertising

Alice Springs Weather History for the Previous 24 Hours

Scroll right to see more
 ConditionsComfort  
Time TempWeatherWind HumidityBarometerVisibility
10:00 PM
Wed, Sep 28
70 °FClear.9 mph64%29.83 "HgN/A
9:30 PM72 °FClear.9 mph61%29.83 "HgN/A
8:30 PM73 °FClear.16 mph57%29.80 "HgN/A
8:00 PM73 °FClear.17 mph57%29.77 "HgN/A
7:30 PM73 °FClear.16 mph57%29.77 "HgN/A
7:00 PM73 °FSunny.17 mph61%29.77 "HgN/A
6:30 PM75 °FSunny.20 mph57%29.74 "HgN/A
6:00 PM75 °FSunny.16 mph61%29.74 "HgN/A
5:30 PM75 °FSunny.22 mph61%29.74 "HgN/A
5:00 PM77 °FSunny.21 mph57%29.74 "HgN/A
4:30 PM77 °FScattered clouds.17 mph61%29.74 "HgN/A
3:30 PM75 °FBroken clouds.22 mph61%29.74 "HgN/A
2:30 PM75 °FPartly sunny.20 mph65%29.77 "HgN/A
1:30 PM73 °FBroken clouds.21 mph69%29.83 "HgN/A
12:30 PM72 °FBroken clouds.23 mph73%29.83 "HgN/A
11:35 AM70 °FBroken clouds.24 mph78%29.86 "HgN/A
11:30 AM68 °FScattered clouds.25 mph83%29.86 "HgN/A
11:24 AM68 °FBroken clouds.22 mph83%29.86 "HgN/A
10:30 AM68 °FBroken clouds.21 mph78%29.89 "HgN/A
9:30 AM66 °FLight rain. Broken clouds.21 mph83%29.89 "HgN/A
9:00 AM66 °FLight rain. More clouds than sun.21 mph83%29.89 "HgN/A
8:30 AM66 °FLight rain. More clouds than sun.15 mph83%29.89 "HgN/A
8:00 AM63 °FLight rain. More clouds than sun.15 mph88%29.89 "HgN/A
7:30 AM64 °FLight rain. Overcast.16 mph83%29.89 "HgN/A
7:00 AM64 °FDrizzle. Overcast.13 mph83%29.89 "HgN/A
6:30 AM64 °FLight rain. Overcast.15 mph78%29.86 "HgN/A
6:00 AM66 °FDrizzle. Overcast.10 mph73%29.86 "HgN/A
5:30 AM64 °FDrizzle. Overcast.15 mph73%29.86 "HgN/A
4:30 AM66 °FSprinkles. Overcast.14 mph64%29.83 "HgN/A
3:30 AM68 °FOvercast.15 mph56%29.83 "HgN/A
2:30 AM68 °FOvercast.12 mph60%29.86 "HgN/A
1:30 AM68 °FPassing clouds.15 mph64%29.86 "HgN/A
1:00 AM68 °FPassing clouds.8 mph69%29.89 "HgN/A
12:30 AM68 °FPassing clouds.9 mph69%29.89 "HgN/A
11:30 PM
Tue, Sep 27
68 °FClear.15 mph64%29.92 "HgN/A
Weather by CustomWeather, © 2016

See weather overviewHow to use our weather pages